Location: Peterborough
(44.3091°N, 78.3197°W)
Time: 06:47:33
(UTC-04:00)

Vanguard 2 - Pass Details

Date: 26 March 2023
Orbit: 552 x 2926 km, 32.9° (Epoch: 04 June)

Event Time Altitude Azimuth Distance (km) Brightness Sun altitude
Rises 09:06:10 0° 258° (WSW) 6,693 11.8 20.5°
Reaches altitude 10° 09:11:04 10° 254° (WSW) 5,521 11.5 21.3°
Maximum altitude 09:25:54 49° 187° (S) 2,571 10.6 23.8°
Drops below altitude 10° 09:35:36 10° 116° (ESE) 3,701 13.0 25.4°
Sets 09:38:13 0° 110° (ESE) 4,404 12.8 25.8°
